Cloud_Cover
36 44 44 20 12 12 8 8 8 12 32 12 8 12 32 24 12 8 8 8 8 8 0 0 8 12 12 32 24 8 0 12 8 0 0 0 0 0 0 8 8 8 8 0 8 8 8 8 0 8 8 8 8 8 8 8 8 8 8 12 20 20 0 0 0 0 0 0 8 0 0 0 12 32 64 48 32 20 20 12 12 8 8 8 20 32 20 44 48 36 12 8 0 0 8 8 12 12 12 12 12 12 8
20 32 32 20 12 12 8 8 12 24 32 20 20 24 56 48 24 8 8 8 12 8 8 0 0 0 0 12 8 0 0 0 0 0 0 0 0 0 0 0 8 8 8 8 8 8 8 8 8 8 8 8 8 8 8 8 8 8 8 8 0 0 0 8 0 0 0 0 0 0 0 0 0 12 32 24 20 12 20 12 12 12 12 8 8 8 12 24 44 44 8 8 0 0 0 0 0 8 8 0 8 8 0
20 24 20 12 12 12 8 12 24 36 24 20 24 44 76 48 24 12 12 12 12 12 8 8 8 0 0 0 0 0 0 0 0 0 0 0 0 0 0 0 8 8 8 8 8 8 8 8 8 8 8 8 12 12 12 12 8 8 8 0 0 0 0 8 8 0 8 8 0 0 0 0 0 0 12 8 8 8 32 12 8 12 24 24 20 12 12 24 24 20 8 8 8 0 0 0 0 0 0 0 0 0 0
24 32 12 24 32 24 8 20 44 56 48 24 24 36 68 36 24 24 20 24 24 20 20 12 12 8 8 8 8 8 8 8 8 8 0 0 8 8 8 8 8 8 8 8 8 8 8 8 8 8 12 12 12 12 12 8 8 8 0 0 0 0 0 24 20 12 12 0 0 0 0 0 20 36 36 12 24 44 32 12 0 12 36 20 8 8 8 8 8 12 44 44 44 36 8 0 0 0 0 0 0 0 0
12 12 12 8 8 8 0 20 36 56 64 44 24 24 36 24 20 20 20 20 20 24 24 20 20 20 12 20 20 20 20 20 20 12 12 12 12 12 12 12 12 12 12 8 8 8 8 8 8 12 12 12 12 12 12 8 8 8 0 0 0 0 0 0 0 8 0 0 0 0 0 12 48 92 92 24 32 48 36 36 24 12 24 36 24 0 0 24 24 12 24 12 12 12 12 8 0 0 0 8 8 0 0
8 8 8 12 8 0 0 12 32 56 56 48 32 20 20 12 12 12 12 12 12 12 20 20 20 20 20 20 24 24 24 32 24 24 24 20 20 12 12 12 12 12 8 12 12 8 8 8 8 12 12 12 12 12 12 8 8 0 0 0 0 0 0 0 0 0 0 0 0 0 0 44 76 92 92 32 12 12 8 20 20 20 20 8 20 32 32 12 0 8 24 20 20 20 20 8 0 0 0 0 0 0 8
8 8 8 32 32 20 0 0 8 24 44 44 32 20 12 12 12 12 12 12 12 12 12 12 12 12 20 12 12 20 24 24 32 24 24 12 12 12 8 8 8 8 8 8 8 12 12 12 12 12 20 20 20 20 12 8 8 12 24 8 12 24 0 0 0 0 0 0 0 0 0 8 48 92 92 24 12 32 36 20 8 0 0 8 8 12 12 24 12 8 32 20 12 12 12 8 8 8 8 8 0 0 0
8 0 0 24 24 20 12 8 12 12 24 24 20 8 8 8 8 8 8 8 8 8 8 8 8 8 8 8 8 12 12 12 12 20 20 12 8 8 8 8 8 8 8 8 8 12 12 12 20 20 20 24 24 20 12 8 48 92 92 68 32 0 0 12 12 12 0 0 0 0 12 8 8 8 12 24 12 12 32 24 12 0 0 0 0 8 12 20 24 24 8 0 0 0 8 0 0 0 8 8 8 8 8
0 0 8 24 24 12 12 32 36 32 8 12 8 8 0 0 0 0 0 0 0 0 0 0 8 8 8 8 8 8 12 12 12 12 8 8 8 8 8 8 8 12 20 20 20 20 20 20 24 24 24 24 20 20 12 12 48 88 92 92 44 0 12 12 8 0 0 0 8 12 8 8 20 24 0 8 32 44 24 24 12 0 0 0 0 0 0 0 12 12 0 0 0 0 0 0 0 0 0 0 0 0 0
0 0 0 0 8 12 12 36 44 36 20 20 20 20 0 0 0 0 0 0 0 0 0 0 0 0 0 0 0 8 8 8 8 8 8 8 8 8 8 12 12 20 24 24 24 24 24 24 24 24 24 24 20 12 12 20 12 32 88 88 44 0 12 48 32 0 0 8 8 8 8 20 12 12 12 8 12 20 44 32 12 0 0 0 0 0 0 0 0 0 0 0 0 0 0 0 0 0 0 0 0 0 0
0 0 0 0 0 8 8 32 36 32 12 12 12 12 8 8 8 0 0 0 0 0 0 0 0 0 0 0 0 0 0 8 8 8 12 12 20 20 20 20 24 24 24 24 24 24 24 24 32 32 24 20 12 8 0 8 0 0 12 0 0 0 8 8 0 0 0 0 0 8 8 12 8 8 24 20 20 20 24 8 0 0 0 0 0 0 0 0 0 0 0 0 0 0 0 0 0 0 0 0 0 0 0
0 0 0 0 0 12 32 44 36 24 20 12 8 8 8 8 8 8 8 8 0 0 0 0 0 0 0 0 0 0 0 0 8 12 20 20 24 24 24 24 24 24 32 32 32 32 32 32 32 24 20 12 12 8 0 12 8 8 36 12 0 8 8 8 8 8 0 8 8 12 20 8 12 12 8 36 24 8 8 0 8 8 0 0 0 0 0 0 0 0 0 0 0 0 0 0 0 0 0 0 0 0 0
0 0 0 0 0 24 88 64 44 32 20 8 8 8 8 8 8 8 8 8 8 8 8 0 0 8 8 0 0 0 0 0 12 20 24 24 24 24 24 24 32 32 32 32 32 32 32 32 32 20 20 8 8 0 0 8 12 8 0 8 8 8 12 12 8 8 12 12 12 12 24 12 8 12 36 44 36 24 20 20 8 0 8 0 0 0 0 0 0 0 0 0 0 0 0 0 0 0 0 0 0 0 0
0 0 0 0 0 12 44 48 36 24 20 8 8 8 8 8 8 8 8 8 8 8 8 8 8 8 8 8 8 8 8 8 20 24 32 32 32 32 32 32 32 32 36 36 36 36 36 32 24 20 12 8 8 0 0 0 8 12 8 0 0 8 12 8 8 8 12 8 8 8 12 32 20 8 20 20 20 12 0 20 12 0 8 0 0 0 0 0 0 0 0 0 0 0 0 0 0 0 0 0 0 0 0
0 0 0 0 0 8 32 32 24 12 0 0 0 0 8 8 8 8 8 8 12 12 12 12 12 12 12 8 8 8 8 20 20 24 32 32 32 32 32 32 32 36 36 36 36 44 44 32 24 20 8 8 8 0 0 0 0 0 0 0 0 0 0 8 8 12 12 8 12 12 8 8 8 12 32 24 20 12 8 8 0 0 8 0 0 0 0 0 0 0 0 0 0 0 0 12 8 8 0 0 0 0 0
0 0 0 0 0 8 36 36 24 12 0 0 0 0 0 0 8 8 12 12 12 12 20 20 20 20 12 12 12 12 12 20 24 24 32 32 36 36 36 36 36 36 36 36 44 36 36 24 20 12 8 8 8 0 0 8 8 8 8 8 8 8 0 8 8 8 8 12 12 8 8 8 8 8 8 12 20 20 12 12 8 0 0 0 0 0 0 0 0 0 0 0 0 0 8 12 8 8 0 0 0 0 0
0 0 0 0 0 8 24 36 32 20 0 0 0 0 0 0 0 8 8 12 20 20 20 20 20 20 20 20 20 20 20 20 32 36 24 32 36 36 44 44 44 44 44 44 36 36 32 20 12 8 8 8 8 0 0 0 8 8 0 8 12 12 0 0 0 0 0 12 12 8 8 8 8 8 8 20 20 12 0 8 8 0 0 0 0 0 0 0 0 0 0 0 0 8 12 12 8 8 0 0 0 0 0
0 0 0 0 0 0 8 20 12 8 8 0 0 0 0 0 0 0 8 12 12 20 20 20 20 20 24 24 32 36 44 44 56 68 48 32 36 44 44 44 48 48 48 44 36 32 24 20 12 12 8 8 8 0 0 0 0 0 0 0 0 0 0 0 8 8 0 20 12 8 8 8 8 8 12 24 20 12 0 0 0 0 0 8 8 8 20 20 12 12 8 8 8 8 12 8 8 8 0 0 0 0 0
8 0 0 0 0 0 0 8 8 8 8 8 0 0 0 0 0 0 8 8 12 12 12 20 20 20 24 32 48 68 68 68 68 68 76 36 32 44 48 56 56 56 56 48 44 36 24 24 20 12 12 8 8 0 0 0 0 0 0 0 0 0 0 8 12 12 0 12 12 12 44 12 8 12 12 20 12 8 0 0 8 12 8 12 8 8 20 24 20 12 8 0 0 0 0 0 0 0 0 0 0 0 0
20 0 0 0 12 12 8 8 8 8 0 8 8 0 0 0 0 0 8 8 8 12 12 12 20 20 24 48 68 76 64 68 64 64 64 48 44 44 48 64 68 68 64 56 56 44 32 32 24 20 12 8 8 8 8 8 0 0 0 0 0 0 12 8 8 8 8 0 0 12 36 12 20 36 36 20 12 12 8 0 8 12 8 20 20 20 12 12 12 8 0 8 0 0 0 0 0 0 0 0 0 0 0
32 8 8 36 64 64 48 20 12 12 12 8 8 8 8 0 0 8 8 8 8 8 8 12 12 20 20 64 64 64 68 56 48 48 48 48 48 44 56 64 64 68 68 64 56 56 44 36 32 24 12 12 12 12 12 12 24 32 8 20 24 20 32 12 8 12 20 8 8 8 8 8 20 24 24 20 24 36 12 20 12 0 0 12 20 12 8 8 8 8 0 8 0 0 0 0 0 0 0 0 0 0 0
36 20 32 76 92 92 88 32 12 20 24 12 8 20 36 20 8 8 8 8 8 8 8 12 12 12 20 36 36 36 48 44 36 36 44 44 44 44 56 56 64 68 68 68 64 56 48 44 36 32 24 12 12 12 12 32 44 56 64 76 76 64 32 20 12 12 20 8 8 12 12 8 8 0 0 8 24 36 8 12 8 0 8 8 8 8 8 8 8 8 0 0 0 0 0 0 0 0 0 0 0 0 0
56 48 76 92 92 92 92 76 44 24 32 20 20 32 64 44 24 12 8 8 12 12 12 12 12 12 12 20 20 20 24 32 32 36 44 44 44 44 48 48 48 56 64 68 64 56 48 36 32 24 24 20 12 12 12 24 24 32 36 68 88 88 68 68 48 24 12 8 8 8 12 12 8 0 0 0 8 12 0 0 0 0 8 12 12 8 8 12 12 0 0 0 0 0 0 0 0 0 0 0 0 0 0
88 80 92 64 76 92 92 68 56 56 56 36 24 32 64 48 56 68 64 56 64 64 36 20 12 12 12 12 12 12 12 20 24 32 36 48 48 48 44 44 44 48 56 64 56 56 44 36 32 24 20 20 12 12 20 20 20 20 20 24 36 48 68 88 88 68 36 12 8 8 12 12 8 8 0 0 0 0 0 0 0 8 0 12 20 20 8 8 8 0 8 0 8 8 0 0 0 0 0 0 0 0 0
92 92 92 68 80 92 92 88 88 88 88 48 32 44 80 80 88 92 92 88 88 88 76 32 12 12 12 8 12 12 12 20 20 24 32 44 48 48 36 36 44 44 48 56 56 48 44 36 32 24 20 12 12 20 20 20 24 24 24 20 12 24 36 48 64 68 64 36 24 24 36 24 12 8 0 0 0 8 12 8 20 24 0 12 24 32 24 8 0 0 0 0 0 0 0 0 0 0 0 0 0 0 0
80 92 92 92 92 92 88 92 92 92 92 80 56 48 92 92 92 92 92 92 92 88 88 32 12 12 12 12 12 12 12 12 20 24 32 36 44 44 32 36 44 44 48 48 48 48 44 36 32 24 24 24 20 20 20 24 24 24 32 24 20 12 12 20 24 24 36 32 32 44 68 44 24 20 32 8 0 8 8 8 20 24 0 12 20 32 56 44 24 0 0 0 0 0 0 0 0 0 0 0 0 0 0
92 92 76 92 92 92 92 92 92 92 92 92 64 48 92 92 92 92 92 92 92 88 88 32 12 12 12 12 12 12 12 20 20 24 32 32 36 44 36 44 48 48 48 48 48 44 44 32 32 24 24 24 24 24 24 24 24 32 32 32 24 20 12 32 24 20 24 68 88 88 80 76 64 48 68 20 8 8 8 8 12 8 0 0 0 8 12 8 12 8 0 0 0 0 0 0 0 0 0 0 0 0 0
68 68 92 92 92 92 92 92 92 92 92 92 64 48 92 92 92 92 92 88 88 88 88 36 24 24 20 20 12 12 12 20 20 20 32 36 36 44 44 44 48 56 56 56 56 48 44 36 32 24 24 24 24 24 24 24 32 32 32 36 32 32 36 48 48 36 32 80 92 92 92 64 68 88 92 32 8 8 20 12 20 20 12 24 12 8 36 24 12 0 0 0 0 0 0 0 0 0 0 0 0 0 0
88 80 92 92 92 88 56 88 92 92 92 92 92 88 92 92 92 92 88 88 88 80 56 32 20 20 20 20 20 20 20 20 20 24 36 36 44 44 44 48 56 64 64 64 56 48 44 44 32 24 24 24 20 20 20 24 24 32 32 36 36 36 32 36 44 44 48 56 64 64 44 32 48 76 76 32 12 12 24 24 32 24 20 8 0 0 0 0 12 24 20 20 8 0 0 0 0 0 0 0 0 0 0
92 92 92 92 92 88 56 88 92 92 92 92 92 92 92 92 92 88 68 68 56 44 32 24 24 24 24 24 20 20 20 20 20 20 32 36 44 44 56 64 64 56 64 64 64 56 48 44 36 32 24 20 12 20 32 24 24 24 32 32 36 36 36 20 24 32 48 56 48 44 36 32 36 56 48 44 32 24 24 24 24 24 20 8 8 8 0 0 0 0 8 8 0 0 0 8 8 8 0 0 8 8 0
76 64 64 88 92 92 92 76 80 92 92 92 92 92 92 92 68 36 32 32 24 24 24 24 24 24 24 24 24 20 20 20 20 20 24 36 44 44 44 56 56 64 64 56 48 44 36 36 32 24 20 12 20 24 32 24 24 24 32 32 36 36 44 32 20 20 24 44 44 32 36 32 32 36 48 36 32 32 20 24 24 24 20 8 8 8 0 0 0 0 8 8 0 0 0 8 12 12 0 12 12 8 0
76 56 76 88 92 92 92 92 92 92 92 92 88 80 76 80 68 44 20 20 20 20 24 24 32 32 32 32 24 20 24 24 24 24 36 36 36 44 44 48 48 56 56 48 48 44 36 24 24 20 20 24 24 24 24 20 20 24 32 32 32 36 44 36 32 24 8 8 12 12 12 32 44 56 56 56 44 36 32 24 20 20 24 20 20 24 20 12 8 0 0 0 0 0 0 0 0 0 0 0 12 20 0
68 56 92 92 80 64 64 88 92 92 92 92 88 76 76 76 56 36 12 12 20 20 24 32 32 32 32 32 32 24 24 24 24 24 24 32 36 44 44 44 44 48 44 44 44 44 44 24 20 20 12 20 24 20 20 24 24 24 24 24 32 36 48 48 44 36 12 12 20 20 12 24 44 68 68 64 48 44 36 32 32 32 32 20 12 12 12 8 8 0 0 0 0 0 0 0 0 0 0 0 0 0 0
92 92 92 92 80 68 76 88 92 92 92 92 80 76 88 68 56 44 12 12 20 20 32 32 32 32 32 32 32 32 24 24 24 24 24 32 32 36 36 44 44 48 44 44 44 44 36 24 20 20 24 24 24 20 20 20 24 32 24 32 36 36 48 56 48 44 36 32 24 20 8 20 36 48 56 56 48 36 36 36 44 44 36 24 12 8 12 8 8 8 0 8 8 0 0 0 0 0 0 0 0 0 0
92 92 92 92 92 92 92 92 92 92 92 92 80 64 48 64 64 56 32 24 20 24 32 32 32 32 32 32 32 32 32 24 24 24 24 32 36 36 36 36 36 44 44 44 44 44 36 36 32 24 24 24 20 20 20 24 24 32 32 36 36 36 48 48 56 56 48 44 44 36 24 20 20 24 32 32 36 36 32 36 44 44 36 24 12 8 0 0 0 0 0 20 12 0 0 0 0 8 8 0 0 0 0
92 92 92 92 92 92 92 92 92 88 88 80 76 64 64 68 68 64 36 24 24 24 24 32 32 36 36 36 36 32 32 32 32 32 32 32 36 36 36 36 36 36 44 36 36 36 36 32 24 24 24 24 24 32 24 24 32 36 36 32 32 36 48 44 48 56 56 48 44 36 44 32 24 24 24 20 20 24 24 32 32 32 36 24 12 8 0 0 0 0 0 8 0 0 0 0 0 0 0 0 0 0 0
92 92 92 92 92 92 92 88 80 80 76 76 68 68 68 68 64 56 44 36 32 24 24 32 32 32 36 36 36 36 36 32 32 32 32 32 36 36 44 36 36 36 36 36 36 32 24 24 32 32 24 24 32 32 32 32 36 36 36 36 36 36 44 44 44 48 56 48 48 44 44 36 32 24 24 20 20 20 20 20 32 36 32 32 24 12 8 8 8 0 0 0 0 8 0 8 8 8 0 0 0 0 0
92 92 92 92 92 88 92 64 64 68 68 68 68 64 64 64 56 48 44 44 32 24 24 32 32 32 36 36 36 36 36 36 36 36 36 36 36 36 44 36 36 36 36 36 32 32 32 24 24 24 32 24 32 36 36 32 36 36 44 36 36 36 44 44 44 44 48 48 48 56 48 44 32 24 32 24 24 24 20 20 20 24 20 32 32 24 20 12 12 8 8 0 0 0 0 0 8 8 0 0 0 0 0
92 92 92 92 80 68 76 36 44 64 68 68 64 56 56 56 56 48 48 48 36 24 32 32 32 32 36 36 36 44 44 44 44 44 44 44 36 36 36 36 36 36 36 36 36 36 36 32 32 24 24 24 24 32 36 36 36 36 36 44 36 36 44 44 44 44 48 44 44 48 56 48 36 32 20 12 12 20 20 20 24 24 32 24 32 32 20 20 12 12 8 8 8 0 0 0 0 8 0 0 0 0 0
92 92 88 88 76 56 36 20 36 56 56 68 64 56 56 56 56 48 48 48 36 24 24 32 32 36 36 36 44 44 44 44 44 44 48 48 44 36 36 36 36 36 36 36 36 36 36 36 32 32 24 24 24 32 32 36 36 36 36 36 36 36 44 36 36 36 44 44 44 48 56 48 44 32 24 20 20 20 24 24 24 24 32 32 32 24 20 12 8 12 32 20 8 8 8 0 0 0 0 8 0 0 0
76 88 80 76 64 48 36 32 36 48 64 68 68 68 64 64 64 56 48 48 44 32 24 32 36 36 36 36 44 48 48 44 44 44 48 48 48 44 36 36 36 36 36 44 44 44 36 36 32 32 32 32 32 32 32 36 36 36 44 36 36 36 44 44 36 36 36 36 44 56 64 56 48 44 36 32 32 32 32 24 20 24 32 36 36 24 20 12 8 20 32 20 12 8 8 8 8 0 8 8 8 0 0
64 68 76 68 64 56 48 44 36 44 68 68 76 68 68 64 64 64 56 64 56 44 32 44 48 48 44 36 44 48 48 48 44 44 44 44 44 44 36 36 36 36 44 44 44 36 36 36 32 32 32 32 36 36 36 44 44 44 44 44 44 44 44 44 44 36 36 36 36 48 64 56 48 44 44 36 36 36 32 24 20 20 20 32 32 32 24 20 12 12 12 8 20 20 12 8 8 8 8 8 8 0 0
64 64 64 68 64 56 64 48 44 48 68 68 68 68 68 68 68 64 56 68 64 56 44 56 56 56 64 48 48 48 48 48 44 36 36 32 32 32 36 36 36 36 44 44 44 36 36 36 36 36 32 36 36 36 44 44 44 44 48 48 56 56 48 48 48 44 36 32 32 36 48 48 44 36 32 36 36 36 36 24 20 20 20 24 24 32 24 24 24 20 12 12 20 20 8 0 0 0 8 12 8 0 8
76 64 48 44 44 48 56 44 44 56 68 68 64 64 68 68 64 64 64 68 68 68 68 68 64 68 68 56 48 44 48 44 36 32 32 24 24 32 32 32 36 36 44 44 44 36 36 36 36 36 36 36 44 44 44 44 48 48 64 64 64 64 56 56 48 44 36 24 20 24 24 32 24 20 20 24 24 32 32 32 24 20 20 20 24 32 32 32 24 20 12 12 12 8 8 8 8 8 8 8 8 8 8
88 68 44 32 32 48 64 44 48 68 76 68 64 56 64 64 64 64 68 68 76 76 80 76 76 76 68 64 48 44 36 36 36 32 32 32 32 32 32 32 32 36 36 44 44 36 36 36 36 44 44 44 44 44 44 48 56 64 68 68 64 64 56 48 44 44 32 24 20 20 20 20 20 20 12 20 20 24 24 32 32 24 20 20 24 32 32 32 24 20 12 12 8 8 8 12 12 8 8 8 8 12 8
88 68 48 32 44 56 44 48 68 76 68 68 64 56 56 56 56 56 64 68 76 80 80 80 80 76 68 64 48 36 32 32 36 36 36 36 36 32 32 32 36 36 36 36 36 36 36 36 36 44 44 44 44 44 48 64 68 76 76 68 64 56 56 44 44 36 32 32 24 24 20 12 20 24 20 24 20 20 20 24 24 24 20 20 24 32 32 32 24 20 20 12 12 12 12 8 8 8 8 8 12 12 12
88 76 68 48 56 64 48 68 76 76 68 64 64 64 64 48 44 48 48 64 76 80 80 88 80 80 68 64 44 36 36 36 36 44 36 36 36 36 36 36 36 44 44 36 36 32 32 36 36 36 36 44 44 48 68 76 76 76 68 64 56 56 48 44 36 36 32 24 24 24 20 12 20 32 32 24 24 20 20 20 20 20 12 24 24 32 32 24 24 24 20 20 12 12 8 8 8 8 0 8 12 12 12
92 88 80 68 76 80 76 88 80 76 76 64 56 56 64 48 48 44 44 64 76 80 88 80 80 80 68 64 48 36 36 36 44 44 44 44 36 36 44 44 44 44 44 36 36 32 32 36 36 44 48 48 56 68 76 80 76 68 64 56 56 48 44 36 32 32 24 24 24 24 20 12 24 36 32 24 24 24 20 12 12 12 12 24 32 32 32 32 24 24 24 20 12 8 8 8 8 0 0 8 12 20 48
92 88 80 76 80 88 92 88 80 76 68 68 64 48 48 48 48 48 44 64 76 80 76 76 76 76 68 64 48 44 44 44 44 44 48 48 44 44 36 44 36 36 36 32 32 32 32 36 48 64 64 68 76 76 80 76 68 64 56 56 56 48 36 32 32 24 24 24 32 24 24 20 24 32 24 20 12 12 20 12 12 12 12 20 24 32 32 32 32 24 24 20 20 12 8 8 8 8 0 8 20 32 44
92 88 76 88 92 92 92 92 80 76 76 76 64 48 44 48 48 44 36 56 68 76 68 68 68 68 76 68 56 48 48 48 48 48 48 56 56 48 44 32 32 24 24 24 24 32 32 56 68 76 76 80 80 76 68 64 64 56 56 64 56 44 36 32 32 24 24 24 32 36 24 24 32 32 20 12 8 8 0 8 8 8 8 12 20 32 24 24 32 36 32 24 20 12 12 12 8 8 0 8 24 44 48
92 92 88 92 92 92 92 92 88 80 76 76 68 56 56 48 48 44 36 48 64 64 64 64 56 64 76 68 64 56 48 48 44 48 64 56 56 64 56 36 32 24 24 24 24 36 48 64 76 76 80 80 80 76 64 64 64 64 64 56 48 44 36 32 24 24 24 24 36 44 24 32 32 32 24 12 8 0 0 0 0 0 0 8 12 20 20 20 32 44 44 24 20 20 12 12 12 8 8 12 20 32 44
92 88 92 92 88 80 80 92 88 76 68 68 68 64 56 48 44 36 32 48 64 64 48 56 56 56 56 68 68 56 48 44 48 56 64 56 48 44 36 36 44 44 36 44 36 44 56 48 64 76 76 76 76 76 64 64 64 68 64 48 44 36 32 32 32 24 20 44 48 48 36 24 20 20 24 12 8 0 0 0 0 0 0 0 8 12 20 24 36 48 44 36 24 20 20 12 12 12 12 20 24 36 44
92 92 92 92 92 88 80 80 80 80 68 64 56 56 56 48 44 36 32 44 64 68 64 68 80 88 64 64 56 48 44 36 36 44 48 44 36 36 32 44 56 64 56 64 56 44 36 48 64 64 68 68 64 56 48 64 64 56 48 48 44 36 36 36 36 32 24 48 56 48 44 36 24 20 12 20 12 8 0 0 0 0 0 0 8 12 12 20 36 48 44 32 32 24 20 20 20 20 20 20 24 36 36
92 92 92 88 92 92 92 88 80 80 80 76 68 64 64 56 48 44 44 56 64 64 64 56 64 64 64 48 44 44 44 36 32 32 32 32 36 44 48 56 56 56 48 64 56 48 56 48 48 44 36 36 36 44 44 56 48 44 48 44 44 44 44 44 36 32 24 24 36 48 44 36 32 24 20 20 12 12 0 0 0 0 0 0 8 12 20 12 32 48 48 36 32 24 20 20 20 24 24 20 20 20 24
92 92 92 92 92 92 88 80 80 80 88 88 80 80 68 68 64 56 48 64 68 68 64 68 64 48 48 56 56 48 56 48 36 24 24 20 32 44 56 64 64 56 48 48 56 64 68 56 44 32 24 24 24 32 44 48 48 44 48 44 36 44 44 44 36 36 44 48 56 56 44 44 36 32 32 24 20 12 20 12 8 0 0 0 0 8 20 36 44 48 44 36 32 24 24 20 20 20 20 20 12 20 24
92 92 92 92 92 88 88 80 76 76 80 80 80 80 76 76 68 64 68 76 76 64 64 56 48 44 44 48 64 68 56 44 32 20 24 20 24 36 56 68 64 48 48 48 56 56 44 36 36 36 24 24 24 32 32 36 44 44 36 44 44 44 48 44 44 48 64 64 64 56 56 44 36 32 32 32 24 20 20 12 12 8 0 8 8 12 24 20 32 44 32 32 32 32 32 24 20 20 20 12 12 12 20
92 92 92 76 76 88 76 76 76 76 68 76 80 80 76 88 88 80 76 68 68 64 56 64 56 48 56 68 76 76 64 48 36 32 32 44 48 56 64 64 64 64 56 64 56 48 36 36 48 64 44 24 24 32 36 36 44 48 56 48 48 44 48 44 56 76 68 64 64 56 48 48 44 36 32 32 32 24 12 12 12 12 8 12 20 24 36 36 36 36 24 32 32 32 32 24 20 20 20 12 12 12 20
88 88 88 88 88 80 68 76 76 76 80 80 80 80 80 88 88 80 76 76 76 68 68 68 68 68 68 76 80 80 76 68 64 56 48 48 56 64 64 48 48 48 48 48 48 56 44 44 48 56 56 36 24 24 36 44 48 56 56 48 48 48 48 48 64 76 68 64 64 56 56 48 48 44 32 36 32 32 24 12 20 32 36 32 32 36 48 44 36 32 20 24 32 24 20 20 20 20 20 12 12 12 12
80 68 68 76 80 76 76 68 76 80 88 88 88 88 88 88 88 88 80 80 80 80 76 76 76 80 80 80 76 68 68 68 76 76 64 56 48 44 44 48 48 44 48 48 56 64 64 64 56 56 64 64 48 32 32 44 56 56 44 44 48 48 48 76 76 68 68 64 64 56 56 48 48 44 36 36 36 32 24 20 32 44 44 48 48 56 48 44 32 24 20 24 24 24 20 20 20 20 24 12 12 12 12
88 80 68 68 76 88 92 88 88 92 92 92 88 88 88 88 88 88 80 88 92 92 80 88 88 80 80 88 76 56 56 68 76 76 64 56 48 44 48 56 56 56 56 56 64 68 68 68 68 68 68 68 68 64 44 36 44 48 36 36 36 48 48 76 64 48 68 68 64 64 64 56 48 48 44 48 48 44 36 44 44 48 48 64 68 64 64 48 36 24 24 24 20 20 12 20 20 20 20 20 20 20 20
88 80 80 80 88 92 92 92 92 92 92 92 92 92 88 88 80 80 88 88 92 92 88 88 88 88 92 80 64 56 64 68 68 68 64 64 64 64 56 64 64 64 68 68 68 76 76 76 76 76 76 76 76 76 76 56 44 44 48 44 56 68 68 68 48 36 56 64 68 64 64 64 56 56 48 48 48 48 44 48 48 48 48 68 68 68 64 48 44 36 32 24 20 12 12 20 24 24 20 24 24 20 24